Time,TemperatureF,DewpointF,PressureIn,WindDirection,WindDirectionDegrees,WindSpeedMPH,WindSpeedGustMPH,Humidity,HourlyPrecipIn,Conditions,Clouds,dailyrainin,SoftwareType,DateUTC
2013-04-03 00:03:00,-999.0,-99.9,30.11,South,179,3.0,4.0,-999,-99.99,,,-99.99,,2013-04-03 04:03:00,
2013-04-03 00:23:00,-999.0,-99.9,30.11,West,268,4.0,5.0,-999,-99.99,,,-99.99,,2013-04-03 04:23:00,
2013-04-03 00:33:00,-999.0,-99.9,30.11,WSW,256,2.0,4.0,-999,-99.99,,,-99.99,,2013-04-03 04:33:00,
2013-04-03 00:43:00,67.0,-99.9,30.11,North,-999,-999.0,-999.0,-999,-99.99,,,-99.99,,2013-04-03 04:43:00,
2013-04-03 00:53:00,-999.0,-99.9,30.11,SW,230,3.0,3.0,-999,-99.99,,,-99.99,,2013-04-03 04:53:00,
2013-04-03 01:03:00,67.0,-99.9,30.11,North,-999,-999.0,-999.0,-999,-99.99,,,-99.99,,2013-04-03 05:03:00,
2013-04-03 01:13:00,-999.0,-99.9,30.11,West,263,3.0,3.0,-999,-99.99,,,-99.99,,2013-04-03 05:13:00,
2013-04-03 01:23:00,67.0,-99.9,30.11,North,-999,-999.0,-999.0,-999,-99.99,,,-99.99,,2013-04-03 05:23:00,
2013-04-03 01:33:00,-999.0,-99.9,30.11,WNW,292,4.0,5.0,-999,-99.99,,,-99.99,,2013-04-03 05:33:00,
2013-04-03 01:42:00,-999.0,-99.9,30.10,NW,310,4.0,5.0,-999,-99.99,,,-99.99,,2013-04-03 05:42:00,
2013-04-03 01:53:00,68.0,-99.9,30.10,North,-999,-999.0,-999.0,-999,-99.99,,,-99.99,,2013-04-03 05:53:00,
2013-04-03 02:03:00,68.0,-99.9,30.10,North,-999,-999.0,-999.0,-999,-99.99,,,-99.99,,2013-04-03 06:03:00,
2013-04-03 02:12:00,-999.0,-99.9,30.09,NNW,334,3.0,4.0,-999,-99.99,,,-99.99,,2013-04-03 06:12:00,
2013-04-03 02:22:00,67.0,-99.9,30.09,North,-999,-999.0,-999.0,-999,-99.99,,,-99.99,,2013-04-03 06:22:00,
2013-04-03 02:43:00,67.0,-99.9,30.07,North,-999,-999.0,-999.0,-999,-99.99,,,-99.99,,2013-04-03 06:43:00,
2013-04-03 02:52:00,-999.0,-99.9,30.06,NNE,26,3.0,5.0,-999,-99.99,,,-99.99,,2013-04-03 06:52:00,
2013-04-03 03:03:00,-999.0,-99.9,30.06,NNE,24,3.0,5.0,-999,-99.99,,,-99.99,,2013-04-03 07:03:00,
2013-04-03 03:12:00,-999.0,-99.9,30.06,NNE,14,3.0,4.0,-999,-99.99,,,-99.99,,2013-04-03 07:12:00,
2013-04-03 03:23:00,-999.0,-99.9,30.06,NNE,22,3.0,4.0,-999,-99.99,,,-99.99,,2013-04-03 07:23:00,
2013-04-03 03:33:00,67.0,-99.9,30.05,North,-999,-999.0,-999.0,-999,-99.99,,,-99.99,,2013-04-03 07:33:00,
2013-04-03 03:43:00,-999.0,-99.9,30.05,NE,50,2.0,5.0,-999,-99.99,,,-99.99,,2013-04-03 07:43:00,
2013-04-03 03:53:00,68.0,-99.9,30.05,North,-999,-999.0,-999.0,-999,-99.99,,,-99.99,,2013-04-03 07:53:00,
2013-04-03 04:03:00,68.0,-99.9,30.04,North,-999,-999.0,-999.0,-999,-99.99,,,-99.99,,2013-04-03 08:03:00,
2013-04-03 04:12:00,-999.0,-99.9,30.03,ESE,110,3.0,6.0,-999,-99.99,,,-99.99,,2013-04-03 08:12:00,
2013-04-03 04:22:00,67.0,-99.9,30.03,North,-999,-999.0,-999.0,-999,-99.99,,,-99.99,,2013-04-03 08:22:00,
2013-04-03 04:33:00,-999.0,-99.9,30.03,ESE,105,3.0,6.0,-999,-99.99,,,-99.99,,2013-04-03 08:33:00,
2013-04-03 04:43:00,-999.0,-99.9,30.03,ESE,108,2.0,5.0,-999,-99.99,,,-99.99,,2013-04-03 08:43:00,
2013-04-03 04:52:00,-999.0,-99.9,30.04,ESE,113,2.0,6.0,-999,-99.99,,,-99.99,,2013-04-03 08:52:00,
2013-04-03 05:02:00,67.0,-99.9,30.04,North,-999,-999.0,-999.0,-999,-99.99,,,-99.99,,2013-04-03 09:02:00,
2013-04-03 05:12:00,-999.0,-99.9,30.03,SE,124,5.0,7.0,-999,-99.99,,,-99.99,,2013-04-03 09:12:00,
2013-04-03 05:22:00,67.0,-99.9,30.04,North,-999,-999.0,-999.0,-999,-99.99,,,-99.99,,2013-04-03 09:22:00,
2013-04-03 05:43:00,67.0,-99.9,30.04,North,-999,-999.0,-999.0,-999,-99.99,,,-99.99,,2013-04-03 09:43:00,
2013-04-03 05:53:00,-999.0,-99.9,30.04,SE,128,3.0,6.0,-999,-99.99,,,-99.99,,2013-04-03 09:53:00,
2013-04-03 06:03:00,67.0,-99.9,30.04,North,-999,-999.0,-999.0,-999,-99.99,,,-99.99,,2013-04-03 10:03:00,
2013-04-03 06:22:00,-999.0,-99.9,30.03,SE,124,7.0,10.0,-999,-99.99,,,-99.99,,2013-04-03 10:22:00,
2013-04-03 06:33:00,67.0,-99.9,30.03,North,-999,-999.0,-999.0,-999,-99.99,,,-99.99,,2013-04-03 10:33:00,
2013-04-03 06:43:00,67.0,-99.9,30.03,North,-999,-999.0,-999.0,-999,-99.99,,,-99.99,,2013-04-03 10:43:00,
2013-04-03 06:53:00,67.0,-99.9,30.03,North,-999,-999.0,-999.0,-999,-99.99,,,-99.99,,2013-04-03 10:53:00,
2013-04-03 07:12:00,-999.0,-99.9,30.03,SE,125,9.0,12.0,-999,-99.99,,,-99.99,,2013-04-03 11:12:00,
2013-04-03 07:23:00,-999.0,-99.9,30.04,SE,124,8.0,10.0,-999,-99.99,,,-99.99,,2013-04-03 11:23:00,
2013-04-03 07:33:00,67.0,-99.9,30.04,North,-999,-999.0,-999.0,-999,-99.99,,,-99.99,,2013-04-03 11:33:00,
2013-04-03 07:43:00,-999.0,-99.9,30.04,SE,136,8.0,10.0,-999,-99.99,,,-99.99,,2013-04-03 11:43:00,
2013-04-03 07:53:00,-999.0,-99.9,30.04,SE,129,6.0,9.0,-999,-99.99,,,-99.99,,2013-04-03 11:53:00,
2013-04-03 08:02:00,-999.0,-99.9,30.04,ESE,120,5.0,8.0,-999,-99.99,,,-99.99,,2013-04-03 12:02:00,
2013-04-03 08:13:00,-999.0,-99.9,30.04,ESE,120,5.0,9.0,-999,-99.99,,,-99.99,,2013-04-03 12:13:00,
2013-04-03 08:23:00,-999.0,-99.9,30.04,ESE,119,4.0,7.0,-999,-99.99,,,-99.99,,2013-04-03 12:23:00,
2013-04-03 08:42:00,-999.0,-99.9,30.05,ESE,118,4.0,7.0,-999,-99.99,,,-99.99,,2013-04-03 12:42:00,
2013-04-03 08:53:00,-999.0,-99.9,30.05,SE,135,5.0,8.0,-999,-99.99,,,-99.99,,2013-04-03 12:53:00,
2013-04-03 09:03:00,68.0,-99.9,30.06,North,-999,-999.0,-999.0,-999,-99.99,,,-99.99,,2013-04-03 13:03:00,
2013-04-03 09:22:00,68.0,-99.9,30.06,North,-999,-999.0,-999.0,-999,-99.99,,,-99.99,,2013-04-03 13:22:00,
2013-04-03 09:42:00,69.0,-99.9,30.06,North,-999,-999.0,-999.0,-999,-99.99,,,-99.99,,2013-04-03 13:42:00,
2013-04-03 09:52:00,-999.0,-99.9,30.06,SE,146,11.0,13.0,-999,-99.99,,,-99.99,,2013-04-03 13:52:00,
2013-04-03 10:03:00,69.0,-99.9,30.06,North,-999,-999.0,-999.0,-999,-99.99,,,-99.99,,2013-04-03 14:03:00,
2013-04-03 10:22:00,-999.0,-99.9,30.06,SSE,156,11.0,13.0,-999,-99.99,,,-99.99,,2013-04-03 14:22:00,
2013-04-03 10:32:00,70.0,-99.9,30.06,North,-999,-999.0,-999.0,-999,-99.99,,,-99.99,,2013-04-03 14:32:00,
2013-04-03 10:43:00,71.0,-99.9,30.05,North,-999,-999.0,-999.0,-999,-99.99,,,-99.99,,2013-04-03 14:43:00,
2013-04-03 10:52:00,-999.0,-99.9,30.06,SSE,160,14.0,17.0,-999,-99.99,,,-99.99,,2013-04-03 14:52:00,
2013-04-03 11:03:00,-999.0,-99.9,30.06,SSE,162,13.0,16.0,-999,-99.99,,,-99.99,,2013-04-03 15:03:00,
2013-04-03 11:13:00,-999.0,-99.9,30.06,SSE,160,13.0,16.0,-999,-99.99,,,-99.99,,2013-04-03 15:13:00,
2013-04-03 11:24:00,72.0,-99.9,30.06,North,-999,-999.0,-999.0,-999,-99.99,,,-99.99,,2013-04-03 15:24:00,
2013-04-03 11:33:00,-999.0,-99.9,30.06,SSE,167,13.0,16.0,-999,-99.99,,,-99.99,,2013-04-03 15:33:00,
2013-04-03 11:43:00,-999.0,-99.9,30.05,SSE,163,12.0,13.0,-999,-99.99,,,-99.99,,2013-04-03 15:43:00,
2013-04-03 11:54:00,-999.0,-99.9,30.04,SSE,160,11.0,12.0,-999,-99.99,,,-99.99,,2013-04-03 15:54:00,
2013-04-03 12:04:00,72.0,-99.9,30.03,North,-999,-999.0,-999.0,-999,-99.99,,,-99.99,,2013-04-03 16:04:00,
2013-04-03 12:13:00,-999.0,-99.9,30.03,SSE,161,11.0,13.0,-999,-99.99,,,-99.99,,2013-04-03 16:13:00,
2013-04-03 12:25:00,73.0,-99.9,30.03,North,-999,-999.0,-999.0,-999,-99.99,,,-99.99,,2013-04-03 16:25:00,
2013-04-03 12:44:00,-999.0,-99.9,30.04,South,171,9.0,11.0,-999,-99.99,,,-99.99,,2013-04-03 16:44:00,
2013-04-03 12:53:00,74.0,-99.9,30.04,North,-999,-999.0,-999.0,-999,-99.99,,,-99.99,,2013-04-03 16:53:00,
2013-04-03 13:03:00,-999.0,-99.9,30.03,SSE,166,8.0,9.0,-999,-99.99,,,-99.99,,2013-04-03 17:03:00,
2013-04-03 13:23:00,77.0,-99.9,30.03,North,-999,-999.0,-999.0,-999,-99.99,,,-99.99,,2013-04-03 17:23:00,
2013-04-03 13:47:00,-999.0,-99.9,30.01,SSE,168,11.0,14.0,-999,-99.99,,,-99.99,,2013-04-03 17:47:00,
2013-04-03 13:54:00,-999.0,-99.9,30.02,South,182,9.0,12.0,-999,-99.99,,,-99.99,,2013-04-03 17:54:00,
2013-04-03 14:13:00,-999.0,-99.9,30.02,SSW,194,9.0,13.0,-999,-99.99,,,-99.99,,2013-04-03 18:13:00,
2013-04-03 14:23:00,-999.0,-99.9,30.02,SSW,198,6.0,11.0,-999,-99.99,,,-99.99,,2013-04-03 18:23:00,
2013-04-03 14:35:00,79.0,-99.9,30.02,North,-999,-999.0,-999.0,-999,-99.99,,,-99.99,,2013-04-03 18:35:00,
2013-04-03 14:43:00,79.0,-99.9,30.02,North,-999,-999.0,-999.0,-999,-99.99,,,-99.99,,2013-04-03 18:43:00,
2013-04-03 14:52:00,78.0,-99.9,30.03,North,-999,-999.0,-999.0,-999,-99.99,,,-99.99,,2013-04-03 18:52:00,
2013-04-03 15:03:00,-999.0,-99.9,30.02,WSW,241,13.0,16.0,-999,-99.99,,,-99.99,,2013-04-03 19:03:00,
2013-04-03 15:13:00,-999.0,-99.9,30.02,WSW,241,13.0,16.0,-999,-99.99,,,-99.99,,2013-04-03 19:13:00,
2013-04-03 15:22:00,-999.0,-99.9,30.02,SW,224,11.0,17.0,-999,-99.99,,,-99.99,,2013-04-03 19:22:00,
2013-04-03 15:33:00,78.0,-99.9,30.02,North,-999,-999.0,-999.0,-999,-99.99,,,-99.99,,2013-04-03 19:33:00,
2013-04-03 15:42:00,78.0,-99.9,30.01,North,-999,-999.0,-999.0,-999,-99.99,,,-99.99,,2013-04-03 19:42:00,
2013-04-03 15:52:00,78.0,-99.9,30.00,North,-999,-999.0,-999.0,-999,-99.99,,,-99.99,,2013-04-03 19:52:00,
2013-04-03 16:03:00,78.0,-99.9,30.00,North,-999,-999.0,-999.0,-999,-99.99,,,-99.99,,2013-04-03 20:03:00,
2013-04-03 16:23:00,-999.0,-99.9,29.99,SW,220,16.0,20.0,-999,-99.99,,,-99.99,,2013-04-03 20:23:00,
2013-04-03 16:42:00,-999.0,-99.9,30.00,SW,218,15.0,20.0,-999,-99.99,,,-99.99,,2013-04-03 20:42:00,
2013-04-03 16:54:00,-999.0,-99.9,30.00,SSW,211,14.0,21.0,-999,-99.99,,,-99.99,,2013-04-03 20:54:00,
2013-04-03 17:03:00,-999.0,-99.9,29.99,SSW,213,14.0,19.0,-999,-99.99,,,-99.99,,2013-04-03 21:03:00,
2013-04-03 17:12:00,-999.0,-99.9,29.99,SSW,211,12.0,17.0,-999,-99.99,,,-99.99,,2013-04-03 21:12:00,
2013-04-03 17:22:00,-999.0,-99.9,29.99,SSW,212,14.0,18.0,-999,-99.99,,,-99.99,,2013-04-03 21:22:00,
2013-04-03 17:33:00,-999.0,-99.9,29.98,SSW,213,14.0,19.0,-999,-99.99,,,-99.99,,2013-04-03 21:33:00,
2013-04-03 17:42:00,-999.0,-99.9,29.99,SW,222,13.0,16.0,-999,-99.99,,,-99.99,,2013-04-03 21:42:00,
2013-04-03 17:52:00,-999.0,-99.9,29.99,SW,221,11.0,17.0,-999,-99.99,,,-99.99,,2013-04-03 21:52:00,
2013-04-03 18:22:00,-999.0,-99.9,29.99,SW,219,13.0,17.0,-999,-99.99,,,-99.99,,2013-04-03 22:22:00,
2013-04-03 18:33:00,75.0,-99.9,29.97,North,-999,-999.0,-999.0,-999,-99.99,,,-99.99,,2013-04-03 22:33:00,
2013-04-03 18:42:00,-999.0,-99.9,29.97,SSW,213,12.0,15.0,-999,-99.99,,,-99.99,,2013-04-03 22:42:00,
2013-04-03 18:53:00,75.0,-99.9,29.97,North,-999,-999.0,-999.0,-999,-99.99,,,-99.99,,2013-04-03 22:53:00,
2013-04-03 19:02:00,75.0,-99.9,29.98,North,-999,-999.0,-999.0,-999,-99.99,,,-99.99,,2013-04-03 23:02:00,
2013-04-03 19:22:00,-999.0,-99.9,29.99,SW,223,11.0,16.0,-999,-99.99,,,-99.99,,2013-04-03 23:22:00,
2013-04-03 19:33:00,-999.0,-99.9,29.99,SW,218,11.0,15.0,-999,-99.99,,,-99.99,,2013-04-03 23:33:00,
2013-04-03 19:43:00,74.0,-99.9,29.99,North,-999,-999.0,-999.0,-999,-99.99,,,-99.99,,2013-04-03 23:43:00,
2013-04-03 19:55:00,-999.0,-99.9,29.99,SW,217,13.0,19.0,-999,-99.99,,,-99.99,,2013-04-03 23:55:00,
2013-04-03 20:03:00,74.0,-99.9,30.00,North,-999,-999.0,-999.0,-999,-99.99,,,-99.99,,2013-04-04 00:03:00,
2013-04-03 20:22:00,73.0,-99.9,30.00,North,-999,-999.0,-999.0,-999,-99.99,,,-99.99,,2013-04-04 00:22:00,
2013-04-03 20:33:00,73.0,-99.9,30.00,North,-999,-999.0,-999.0,-999,-99.99,,,-99.99,,2013-04-04 00:33:00,
2013-04-03 20:43:00,-999.0,-99.9,30.00,South,188,12.0,15.0,-999,-99.99,,,-99.99,,2013-04-04 00:43:00,
2013-04-03 20:53:00,-999.0,-99.9,30.00,South,189,12.0,15.0,-999,-99.99,,,-99.99,,2013-04-04 00:53:00,
2013-04-03 21:22:00,-999.0,-99.9,30.03,SW,228,11.0,15.0,-999,-99.99,,,-99.99,,2013-04-04 01:22:00,
2013-04-03 21:32:00,72.0,-99.9,30.04,North,-999,-999.0,-999.0,-999,-99.99,,,-99.99,,2013-04-04 01:32:00,
2013-04-03 21:43:00,-999.0,-99.9,30.04,SW,223,10.0,12.0,-999,-99.99,,,-99.99,,2013-04-04 01:43:00,
2013-04-03 21:53:00,-999.0,-99.9,30.03,SW,236,5.0,7.0,-999,-99.99,,,-99.99,,2013-04-04 01:53:00,
2013-04-03 22:02:00,72.0,-99.9,30.02,North,-999,-999.0,-999.0,-999,-99.99,,,-99.99,,2013-04-04 02:02:00,
2013-04-03 22:12:00,-999.0,-99.9,30.04,WSW,242,5.0,5.0,-999,-99.99,,,-99.99,,2013-04-04 02:12:00,
2013-04-03 22:22:00,72.0,-99.9,30.05,North,-999,-999.0,-999.0,-999,-99.99,,,-99.99,,2013-04-04 02:22:00,
2013-04-03 22:32:00,-999.0,-99.9,30.06,SW,226,5.0,9.0,-999,-99.99,,,-99.99,,2013-04-04 02:32:00,
2013-04-03 22:42:00,-999.0,-99.9,30.06,SW,226,5.0,9.0,-999,-99.99,,,-99.99,,2013-04-04 02:42:00,
2013-04-03 22:53:00,-999.0,-99.9,30.06,SW,226,5.0,9.0,-999,-99.99,,,-99.99,,2013-04-04 02:53:00,
2013-04-03 23:02:00,72.0,-99.9,30.05,North,-999,-999.0,-999.0,-999,-99.99,,,-99.99,,2013-04-04 03:02:00,
2013-04-03 23:12:00,-999.0,-99.9,30.04,SSE,165,13.0,15.0,-999,-99.99,,,-99.99,,2013-04-04 03:12:00,
2013-04-03 23:23:00,-999.0,-99.9,30.06,SSE,159,11.0,16.0,-999,-99.99,,,-99.99,,2013-04-04 03:23:00,
2013-04-03 23:34:00,-999.0,-99.9,30.06,ESE,116,7.0,10.0,-999,-99.99,,,-99.99,,2013-04-04 03:34:00,
2013-04-03 23:53:00,-999.0,-99.9,30.05,ESE,119,8.0,12.0,-999,-99.99,,,-99.99,,2013-04-04 03:53:00,